Location: Nelson
(41.2830°S, 173.2830°E)
Time: 01:30:39
(UTC+13:00)

Cosmos 1184 Rocket - Pass Details

Date: 24 January 2019
Orbit: 414 x 429 km, 81.2° (Epoch: 19 February)

Event Time Altitude Azimuth Distance (km) Brightness Sun altitude
Rises 21:24:23 0° 342° (NNW) 2,395 6.4 -5.6°
Reaches altitude 10° 21:26:26 10° 337° (NNW) 1,539 5.5 -5.9°
Maximum altitude 21:29:44 53° 259° (W) 546 3.8 -6.5°
Drops below altitude 10° 21:33:05 10° 180° (S) 1,569 6.1 -7.0°
Sets 21:35:12 0° 175° (S) 2,447 7.1 -7.3°
